Кобринское

Россия / Санкт-Петербург и Ленинградская область     59°25′34″N   30°07′18″E
В апреле 2022 года жителям России запретили посещать сайт meteo.paraplan.net по решению Генеральной прокуратуры. Аудитория сайта уменьшилась в 10 раз. Владельцы сайта не видят смысла в поддержке погодного сервера в таких условиях. Сайт будет закрыт в октябре.
темп.,
°C
ветер,
м/с
пор.,
м/с
влажн.,
%
обл.,
%
осадки,
мм/ч
давл.,
гПа
погр.,
м
4 октября, вт
вт400:00+7ссв61296100 6.8 998649
03:00+7всв3898100 8.9 998567
06:00+6в389336 0.6 1000469
09:00+6всв2694100 0.6 1001500
12:00+6всв3795100 0.2 1002560
15:00+7вюв1289100 0.5 1003500
18:00+6ю1294100 0.8 100588
21:00+6ю1194100 0.9 100646
5 октября, ср
ср500:00+6ююз129599 0.2 100788
03:00+6ююз239598 0.3 100885
06:00+6ююз239577 0.0 1009134
09:00+6юз249453 0.0 1010217
12:00+9зюз3588100 0.0 1010537
15:00+10зюз3582100 0.3 1011754
18:00+8юз2588100 0.0 1012215
21:00+7ююз389299 0.0 1012277
6 октября, чт
чт600:00+8ююз3897100 0.0 1012259
03:00+7ю389997 0.0 1011210
06:00+9ю31099100 0.1 1010374
09:00+11ююз41298100 0.1 1008505
12:00+12юз61385100 0.0 1007669
15:00+15юз5127430 0.0 1005989
18:00+14юз61584100 0.2 10041316
21:00+11зюз7158471 3.2 10061112
7 октября, пт
пт700:00+10зюз71481100 0.0 10081183
03:00+11зюз61578100 0.1 10091425
06:00+10зюз61477100 0.1 10101390
09:00+10зюз6147643 0.3 10101555
12:00+11з71571100 0.1 10131593
15:00+12з714684 0.1 10141415
18:00+11зюз411775 0.0 1015645
21:00+10юз5138273 0.0 1016652
8 октября, сб
сб800:00+10юз51286100 0.0 1016686
03:00+10юз51284100 0.0 1014904
06:00+9ююз5149082 0.0 1013691
09:00+9ююз5148298 0.0 1012666
12:00+12ююз61366100 0.0 1010969
15:00+13ююз61365100 0.0 10081088
18:00+11ююз61373100 0.0 10071058
21:00+10юз51286100 0.9 1006956